EHI
0 0 0 0 0 0 0 0 0 0 0 0 0 0 0 0 0 0 0 0 0 0 1 2 4 5 5 4 3 4 5 6 6 4 4 5 5 4 4 5 5 4 2 1
0 0 0 0 0 0 0 0 0 0 0 0 0 0 0 0 0 0 0 0 0 0 1 2 4 5 4 3 2 3 4 5 6 4 4 5 4 3 3 3 3 3 2 1
0 0 0 0 0 0 0 0 0 0 0 0 0 0 0 0 0 0 0 0 0 0 1 2 3 3 3 2 2 2 3 4 5 4 3 3 3 3 2 1 1 1 1 0
0 0 0 0 0 0 0 0 0 0 0 0 0 0 0 0 0 0 0 0 0 0 0 1 2 2 2 2 2 2 3 3 4 3 1 1 2 2 1 0 0 0 0 0
0 0 0 0 0 0 0 0 0 0 0 0 0 0 0 0 0 0 0 0 0 0 0 1 2 3 2 2 2 2 2 3 2 1 0 0 1 1 0 0 0 0 0 0
0 0 0 0 0 0 0 0 0 0 0 0 0 0 0 0 0 0 0 0 0 0 0 1 2 2 2 2 1 1 2 2 1 0 0 0 0 0 0 1 0 0 0 0
0 0 0 0 0 0 0 0 0 0 0 0 0 0 0 0 0 0 0 0 0 0 0 0 1 1 1 1 0 1 2 2 1 0 0 0 0 0 0 0 0 0 0 0
0 0 0 0 0 0 0 0 0 0 0 0 0 0 0 0 0 0 0 0 0 0 0 0 0 0 0 0 1 2 3 3 2 1 1 0 0 0 0 0 0 0 0 0
0 0 0 0 0 0 0 0 0 0 0 0 0 0 0 0 0 0 0 0 0 0 0 0 0 0 0 0 1 2 3 3 3 3 2 1 0 0 0 0 0 0 0 0
0 0 0 0 0 0 0 0 0 0 0 0 0 0 0 0 0 0 0 0 0 0 0 0 0 0 0 0 0 1 1 2 2 2 2 1 0 0 0 0 0 0 0 0
0 0 0 0 0 0 0 0 0 0 0 0 0 0 0 0 0 0 0 0 0 0 0 0 0 0 0 0 0 0 0 1 1 1 1 0 0 0 0 0 0 0 0 0
0 0 0 0 0 0 0 0 0 0 0 0 0 0 0 0 0 0 0 0 0 0 0 0 0 0 0 0 0 0 0 0 0 0 0 0 0 0 0 0 0 0 0 0
0 0 0 0 0 0 0 0 0 0 0 0 0 0 0 0 0 0 0 0 0 0 0 0 0 0 0 0 0 0 0 0 0 0 0 0 0 0 0 0 0 0 0 0
0 0 0 0 0 0 0 0 0 0 0 0 0 0 0 0 0 0 0 0 0 0 0 0 0 0 0 0 0 0 0 0 0 0 0 0 0 0 0 0 0 0 0 0
0 0 0 0 0 0 0 0 0 0 0 0 0 0 0 0 0 0 0 0 0 0 0 0 0 0 0 0 0 0 0 0 0 0 0 0 0 0 0 0 0 0 0 0
0 0 0 0 0 0 0 0 0 0 0 0 0 0 0 0 0 0 0 0 0 0 0 0 0 0 0 0 0 0 0 0 0 0 0 0 0 0 0 0 0 0 0 0
0 0 0 0 0 0 0 0 0 0 0 0 0 0 0 0 0 0 0 0 0 0 0 0 0 0 0 0 0 0 0 0 0 0 0 0 0 0 0 0 0 0 0 0
0 0 0 0 0 0 0 0 0 0 0 0 0 0 0 0 0 0 0 0 0 0 0 0 0 0 0 0 0 0 0 0 0 0 0 0 0 0 0 0 0 0 0 0
0 0 0 0 0 0 0 0 0 0 0 0 0 0 0 0 0 0 0 0 0 0 0 0 0 0 0 0 0 0 0 0 0 0 0 0 0 0 0 0 0 0 0 0
0 0 0 0 0 0 0 0 0 0 0 0 0 0 0 0 0 0 0 0 0 0 0 0 0 0 0 0 0 0 0 0 0 0 0 0 0 0 0 0 0 0 0 0
0 0 0 0 0 0 0 0 0 0 0 0 0 0 0 0 0 0 0 0 0 0 0 0 0 0 0 0 0 0 0 0 0 0 0 0 0 0 0 0 0 0 0 0
0 0 0 0 0 0 0 0 0 0 0 0 0 0 0 0 0 0 0 0 0 0 0 0 0 0 0 0 0 0 0 0 0 0 0 0 0 0 0 0 0 0 0 0
0 0 0 0 0 0 0 0 0 0 0 0 0 0 0 0 0 0 0 0 0 0 0 0 0 0 0 0 0 0 0 0 0 0 0 0 0 0 0 0 0 0 0 0
0 0 0 0 0 0 0 0 0 0 0 0 0 0 0 0 0 0 0 0 0 0 0 0 0 0 0 0 0 0 0 0 0 0 0 0 0 0 0 0 0 0 0 0
0 0 0 0 0 0 0 0 0 0 0 0 0 0 0 0 0 0 0 0 0 0 0 0 0 0 0 0 0 0 0 0 0 0 0 0 0 0 0 0 0 0 0 0
0 0 0 0 0 0 0 0 0 0 0 0 0 0 0 0 0 0 0 0 0 0 0 0 0 0 0 0 0 0 0 0 0 0 0 0 0 0 0 0 0 0 0 0
Wind_Speed
1 1 3 6 7 5 4 4 6 7 5 3 6 7 8 4 2 2 3 3 3 3 3 1 2 3 5 5 6 7 7 6 5 4 5 5 4 3 3 3 4 5 5 6
2 4 6 4 5 5 5 5 6 6 5 4 5 8 7 3 3 3 3 3 3 3 2 0 1 2 3 5 6 7 7 7 6 5 4 4 4 3 3 3 4 5 6 6
3 4 3 2 4 5 7 7 6 6 7 4 2 6 5 3 1 0 2 2 2 2 2 2 1 2 3 3 5 6 6 7 6 5 4 4 3 2 2 3 3 4 5 6
3 4 4 3 4 5 8 4 5 5 3 4 3 5 4 2 2 2 2 2 2 1 1 1 2 2 2 2 3 4 5 5 5 6 6 7 6 5 4 4 4 4 5 6
4 4 4 4 5 4 5 5 5 5 4 3 2 3 5 1 3 4 3 2 2 1 0 0 2 2 2 1 2 3 4 4 5 5 6 6 5 3 3 3 4 4 4 5
4 3 2 4 5 4 2 2 1 1 2 4 4 4 4 2 3 4 3 3 2 2 2 2 2 2 2 2 2 2 4 3 3 4 5 6 6 5 5 4 5 4 3 3
6 4 3 2 4 3 2 2 1 0 2 5 2 3 3 3 4 2 2 2 3 3 3 3 3 3 2 2 2 2 3 3 2 3 4 5 6 7 7 6 5 5 3 2
4 6 4 4 2 2 3 2 3 3 3 2 1 3 3 4 6 4 3 3 3 4 4 4 3 2 2 2 2 2 3 3 3 3 3 3 4 4 4 5 4 5 4 4
2 6 5 5 3 1 1 2 2 1 0 1 1 3 5 7 9 7 6 5 5 4 4 4 4 4 3 2 2 1 2 2 2 2 2 3 3 3 4 4 4 4 3 3
1 5 6 6 4 3 1 1 1 1 2 2 1 1 3 7 8 8 6 5 5 5 5 5 4 5 4 3 2 2 2 2 1 1 2 2 2 2 3 3 4 3 3 4
1 1 6 5 4 5 4 3 1 0 1 2 1 2 2 4 5 5 5 4 4 4 4 4 5 5 5 5 4 3 3 2 1 1 1 1 1 1 2 3 3 4 3 4
2 1 3 4 2 3 2 2 1 1 1 1 1 2 4 4 4 4 5 6 5 5 4 4 4 5 6 6 5 4 3 2 1 0 1 2 1 1 2 2 3 3 4 4
2 2 4 6 5 6 5 6 5 2 1 1 1 4 4 7 8 7 6 6 6 5 5 5 5 5 6 6 6 5 4 3 2 1 1 1 1 1 1 1 2 3 3 4
3 2 2 2 3 4 5 6 5 3 1 0 2 4 7 10 10 9 8 6 5 4 4 5 5 5 5 5 5 5 5 4 3 2 1 1 1 2 1 1 1 2 3 3
3 1 1 3 3 2 4 6 5 2 1 2 3 3 6 8 8 7 6 6 6 6 6 5 5 5 5 5 5 5 5 5 4 2 2 1 0 1 1 1 1 2 2 3
3 1 1 3 3 3 4 7 4 3 3 2 3 4 6 6 5 6 6 6 7 7 7 7 6 5 5 5 5 5 5 4 3 2 2 1 0 1 1 1 1 2 2 3
1 1 1 3 5 4 4 4 3 2 2 1 2 4 6 7 8 6 5 6 6 7 7 6 5 4 4 4 4 4 4 4 3 3 3 2 1 1 1 1 1 2 2 2
2 2 1 2 3 2 4 1 2 2 2 2 3 5 5 6 7 4 3 5 6 7 7 6 5 5 4 4 3 3 3 3 3 3 3 3 2 1 0 1 2 1 1 2
2 3 1 1 1 5 4 3 2 2 4 3 5 7 7 7 5 3 5 6 5 5 6 5 5 4 3 3 3 3 3 3 3 3 3 2 2 1 1 1 1 1 2 2
3 3 3 1 1 4 4 5 5 1 3 5 5 6 7 6 3 4 7 8 7 7 6 5 5 4 4 4 3 3 3 3 3 3 3 3 2 1 1 1 1 1 2 2
3 3 1 1 3 6 4 6 3 2 5 7 5 5 5 3 4 6 8 7 7 6 6 6 5 4 4 3 3 3 3 3 3 3 3 2 2 1 1 1 1 2 2 2
2 1 2 2 2 6 4 2 0 4 5 5 5 4 5 5 6 7 7 7 7 7 7 6 5 5 4 3 3 3 3 3 3 2 2 2 2 1 1 2 1 2 2 2
3 4 4 5 6 4 1 2 3 3 4 4 5 6 5 6 6 7 7 7 7 6 6 6 5 5 4 4 3 3 3 3 2 2 2 2 2 2 1 1 1 1 1 2
3 1 2 4 6 5 4 3 4 4 4 5 5 5 5 5 7 7 7 6 6 6 6 5 5 5 5 5 4 3 3 2 2 2 2 2 2 2 2 1 0 1 1 1
4 1 2 5 5 5 4 4 6 6 5 5 6 5 5 5 6 6 6 6 5 6 5 4 4 4 4 4 4 4 3 2 2 2 2 2 2 1 1 1 1 0 0 1
3 4 4 6 4 4 6 5 5 5 6 6 6 6 5 4 6 6 5 5 5 5 5 5 5 4 4 4 4 4 4 2 1 1 1 1 1 1 1 1 2 4 2 2
Wind_Direction
16 93 217 224 220 234 223 230 261 267 276 257 245 261 278 288 245 244 243 233 241 258 278 225 179 170 167 169 174 177 171 170 164 165 169 166 169 167 162 162 159 160 158 156
28 262 251 246 243 254 252 250 263 287 290 268 251 261 270 267 231 218 238 237 241 268 302 232 137 142 164 176 180 180 178 174 174 177 177 166 157 163 166 160 161 165 162 160
209 270 296 289 270 264 259 235 243 265 312 294 247 276 262 267 267 306 261 248 248 228 235 229 170 162 158 173 183 184 182 176 173 163 150 130 120 120 142 162 170 173 170 166
278 292 315 306 279 265 266 250 254 263 268 269 216 260 276 261 318 313 288 275 263 266 258 220 156 151 164 193 180 173 173 169 168 163 160 158 165 172 178 173 172 172 175 173
291 317 314 281 276 265 254 276 260 248 221 265 242 233 287 353 306 291 291 297 301 323 44 125 140 157 150 151 152 160 154 154 159 167 168 166 165 166 152 152 160 172 179 179
271 282 278 273 296 268 267 328 346 125 153 241 224 193 287 322 267 299 324 343 345 29 44 39 50 85 90 95 111 126 135 141 152 158 165 171 167 159 154 162 171 178 179 183
333 318 319 324 333 340 20 96 70 197 205 238 171 175 251 326 332 314 318 341 357 35 50 46 43 62 74 90 110 125 138 139 141 151 160 172 174 171 175 177 178 177 174 185
341 317 328 344 336 290 266 187 179 196 212 268 134 210 256 344 349 4 21 31 29 37 39 34 31 51 78 88 100 122 146 152 148 157 168 172 168 172 180 181 179 185 188 188
318 292 318 334 345 353 302 251 244 166 172 206 251 296 314 357 3 9 21 28 20 21 31 30 24 29 40 57 73 119 141 137 148 164 165 162 172 173 178 178 177 185 182 178
249 286 310 322 355 2 322 300 55 143 170 220 252 288 316 344 348 352 5 10 1 12 20 21 23 21 24 33 38 60 81 94 111 143 157 165 183 189 177 169 173 179 179 172
1 298 316 350 14 344 2 360 0 220 245 174 204 283 340 341 339 340 344 359 360 10 17 15 17 17 23 33 40 46 47 52 60 103 137 137 163 175 168 165 177 179 179 174
351 68 297 284 294 357 27 358 358 157 297 318 149 277 344 352 354 1 358 358 6 11 19 22 24 27 28 28 28 33 32 32 26 65 146 152 150 146 163 176 178 172 175 181
21 54 347 343 352 5 12 5 5 357 91 105 157 272 337 359 7 9 5 1 6 11 22 24 26 28 26 21 19 22 22 16 16 30 118 134 140 149 166 184 183 176 174 172
62 85 151 214 276 318 334 347 1 24 89 219 242 275 330 349 353 351 354 360 3 12 23 23 22 20 19 18 16 14 13 10 12 20 48 120 160 173 179 185 185 180 174 170
60 66 261 252 272 317 341 339 349 351 288 224 277 288 314 334 337 336 347 2 12 13 12 14 14 11 9 13 12 11 8 5 7 14 15 349 227 152 152 160 166 173 171 171
49 43 327 297 299 326 334 342 337 324 310 281 311 300 314 328 346 355 1 6 5 2 359 358 0 3 3 3 1 2 2 357 4 13 3 351 48 118 134 147 148 165 174 169
30 77 20 293 317 346 319 326 329 318 313 292 275 294 330 338 341 337 341 354 351 348 349 347 346 346 345 345 350 352 351 356 8 13 6 1 21 87 126 147 140 155 174 161
160 142 173 306 15 274 257 322 332 305 325 356 325 321 320 312 308 303 332 343 338 338 339 337 338 337 340 345 350 355 3 10 12 12 8 5 4 36 112 138 145 153 157 155
152 147 123 112 279 280 299 341 348 300 295 349 332 326 330 327 330 329 347 347 329 325 324 323 324 325 337 347 348 358 7 14 13 1 352 355 4 36 98 143 152 152 137 132
61 92 113 115 193 257 278 312 313 237 296 340 334 322 329 347 347 310 329 333 331 334 333 331 333 341 349 346 351 5 1 5 356 343 338 341 355 27 88 127 140 125 122 131
19 33 99 174 233 265 286 311 355 102 287 317 315 311 316 300 268 290 311 321 326 330 333 336 342 349 346 344 356 359 354 341 336 341 346 353 8 21 60 93 108 122 126 123
185 189 208 175 221 263 324 8 114 256 297 309 309 309 308 301 306 313 318 321 329 334 339 345 350 350 350 352 356 353 340 331 342 357 357 5 17 20 53 90 94 110 127 127
206 202 203 203 222 255 271 256 274 292 296 299 304 306 308 310 315 322 323 326 329 333 336 345 350 347 349 351 352 343 330 335 351 9 9 10 17 25 43 87 111 110 120 135
280 264 219 262 267 276 283 290 309 306 293 298 301 304 310 308 312 319 321 324 330 334 335 340 348 348 343 345 347 341 329 338 6 10 9 15 31 32 33 30 76 133 149 154
253 216 244 263 282 307 295 286 294 303 307 311 314 312 310 310 310 309 313 318 323 326 330 338 341 335 330 339 347 347 345 360 12 17 13 20 23 30 41 34 30 70 335 192
210 191 198 239 246 245 275 288 299 300 302 305 311 316 317 308 301 306 309 315 319 322 329 336 339 335 334 342 345 347 348 356 16 26 15 11 25 40 48 63 42 36 43 49